User: anonymous   Login
Location: Hac?musa Deresi
(39.1694°N, 32.2508°E)
Time: 17:18:48
(UTC+00:00)
Language:

ACS3 Solar Sail - Orbit

View from above orbital plane
View from above orbital plane
View from above satellite
View from above satellite

Ground track
Ground track

The orbit is defined by the following mean orbital elements,

1 59588U          26159.30437500 +.00000000 +00000-0 +20019-1 0 00006
2 59588  97.1681  80.0763 0051344  68.3061 292.3561 13.93888153    01
Epoch (UTC): 08 June 2026 07:18:18
Eccentricity: 0.0051344
inclination: 97.1681°
perigee height: 878 km
apogee height: 952 km
right ascension of ascending node: 80.0763°
argument of perigee: 68.3061°
revolutions per day: 13.93888153
mean anomaly at epoch: 292.3561°

The dashed part of the orbit path shows where the satellite is in the earth's shadow,  

DLR